FW4092 Weather Reports


Display with metric or nautical units.
time (UTC)temp
F
wind
direction
speed
MPH
gust
MPH
rain 1hr
in
rain 24hr
in
rain mn
in
humidity
%
barometer
mb
20190419002311 79 56 2.0 4.0 0.00 0.00 0.00 32 1018.7
20190419001810 78 45 2.0 4.0 0.00 0.00 0.00 34 1018.6
20190419001311 78 127 2.0 3.0 0.00 0.00 0.00 33 1018.7
20190419000809 77 28 2.0 3.0 0.00 0.00 0.00 34 1018.6
20190419000309 76 322 1.0 3.0 0.00 0.00 0.00 35 1018.7
20190418235808 77 281 2.0 5.0 0.00 0.00 0.00 34 1018.8
20190418235306 77 306 2.0 5.0 0.00 0.00 0.00 34 1018.9
20190418234806 79 355 2.0 5.0 0.00 0.00 0.00 32 1018.9
20190418234307 79 315 2.0 10.0 0.00 0.00 0.00 31 1019.0
20190418233807 79 127 4.0 10.0 0.00 0.00 0.00 31 1019.0
20190418233307 79 288 4.0 9.0 0.00 0.00 0.00 31 1019.1
20190418232807 80 254 4.0 11.0 0.00 0.00 0.00 31 1019.1
20190418232307 80 294 4.0 11.0 0.00 0.00 0.00 32 1019.1
20190418231807 79 317 4.0 10.0 0.00 0.00 0.00 32 1019.1
20190418231307 79 27 4.0 8.0 0.00 0.00 0.00 31 1019.2
20190418230807 79 349 3.0 8.0 0.00 0.00 0.00 31 1019.2
20190418230307 79 153 2.0 7.0 0.00 0.00 0.00 31 1019.3
20190418225807 79 340 3.0 8.0 0.00 0.00 0.00 31 1019.4
20190418225307 79 347 3.0 8.0 0.00 0.00 0.00 30 1019.5
20190418224806 79 80 3.0 6.0 0.00 0.00 0.00 32 1019.5
20190418224307 79 16 3.0 11.0 0.00 0.00 0.00 31 1019.5
20190418223807 79 115 3.0 11.0 0.00 0.00 0.00 30 1019.7
20190418223307 78 240 3.0 7.0 0.00 0.00 0.00 34 1019.9
20190418222807 78 177 3.0 7.0 0.00 0.00 0.00 31 1020.0
20190418222306 78 323 3.0 8.0 0.00 0.00 0.00 31 1020.1
20190418221807 78 281 2.0 8.0 0.00 0.00 0.00 32 1020.2
20190418221306 77 5 3.0 7.0 0.00 0.00 0.00 31 1020.3
20190418220806 77 44 3.0 7.0 0.00 0.00 0.00 31 1020.5
20190418220307 77 261 3.0 7.0 0.00 0.00 0.00 34 1020.5
20190418215806 77 265 2.0 7.0 0.00 0.00 0.00 33 1020.6
20190418215304 77 146 3.0 6.0 0.00 0.00 0.00 33 1020.6
20190418214810 77 107 3.0 6.0 0.00 0.00 0.00 33 1020.9
20190418214304 77 95 3.0 5.0 0.00 0.00 0.00 33 1020.9
20190418213804 77 324 3.0 6.0 0.00 0.00 0.00 33 1021.0
20190418213304 77 349 2.0 6.0 0.00 0.00 0.00 34 1021.0
20190418212804 76 45 3.0 6.0 0.00 0.00 0.00 34 1021.0
20190418212304 76 46 3.0 7.0 0.00 0.00 0.00 35 1021.1
20190418211805 76 355 3.0 8.0 0.00 0.00 0.00 35 1021.1
20190418211304 76 63 3.0 8.0 0.00 0.00 0.00 34 1021.2
20190418210805 77 86 3.0 8.0 0.00 0.00 0.00 35 1021.3
20190418210307 76 103 3.0 9.0 0.00 0.00 0.00 34 1021.3
20190418205809 76 0 3.0 9.0 0.00 0.00 0.00 36 1021.3
20190418205306 76 42 2.0 5.0 0.00 0.00 0.00 35 1021.5
20190418204805 75 187 2.0 6.0 0.00 0.00 0.00 33 1021.5
20190418204307 75 188 3.0 6.0 0.00 0.00 0.00 34 1021.6
20190418203807 74 292 3.0 8.0 0.00 0.00 0.00 35 1021.6
20190418203306 74 240 3.0 8.0 0.00 0.00 0.00 35 1021.6
20190418202803 74 118 3.0 8.0 0.00 0.00 0.00 36 1021.5
20190418202303 74 72 2.0 5.0 0.00 0.00 0.00 36 1021.7
20190418201802 74 221 3.0 7.0 0.00 0.00 0.00 34 1021.8
20190418201302 74 61 3.0 7.0 0.00 0.00 0.00 36 1021.9
20190418200802 74 35 3.0 7.0 0.00 0.00 0.00 37 1022.0
20190418200304 73 134 2.0 7.0 0.00 0.00 0.00 36 1022.2
20190418195800 73 261 2.0 5.0 0.00 0.00 0.00 37 1022.3
20190418195300 72 311 2.0 5.0 0.00 0.00 0.00 36 1022.5
20190418195031 72 150 2.0 5.0 0.00 0.00 0.00 35 1022.5
20190418194301 72 206 1.0 4.0 0.00 0.00 0.00 37 1022.6
20190418193802 72 146 2.0 6.0 0.00 0.00 0.00 37 1022.8
20190418193300 71 147 2.0 6.0 0.00 0.00 0.00 39 1022.8
20190418192758 71 63 2.0 5.0 0.00 0.00 0.00 37 1022.9
20190418192258 71 303 2.0 5.0 0.00 0.00 0.00 38 1022.9
20190418191758 71 184 2.0 6.0 0.00 0.00 0.00 38 1023.0
20190418191258 70 90 2.0 7.0 0.00 0.00 0.00 40 1023.0
20190418190759 70 338 3.0 7.0 0.00 0.00 0.00 38 1023.0
20190418190258 70 153 2.0 7.0 0.00 0.00 0.00 41 1023.1
20190418185758 70 94 2.0 5.0 0.00 0.00 0.00 40 1023.1
20190418185256 69 102 3.0 8.0 0.00 0.00 0.00 41 1023.2
20190418184756 69 111 2.0 8.0 0.00 0.00 0.00 43 1023.4
20190418184256 68 246 2.0 6.0 0.00 0.00 0.00 43 1023.5
20190418183756 68 65 2.0 6.0 0.00 0.00 0.00 44 1023.6
20190418183256 68 84 3.0 9.0 0.00 0.00 0.00 43 1023.6
20190418182756 67 140 3.0 9.0 0.00 0.00 0.00 43 1023.5
20190418182256 67 98 3.0 9.0 0.00 0.00 0.00 45 1023.5
20190418181756 67 135 3.0 9.0 0.00 0.00 0.00 46 1023.5
20190418181258 67 92 3.0 8.0 0.00 0.00 0.00 43 1023.6
20190418180759 66 167 2.0 8.0 0.00 0.00 0.00 45 1023.8
20190418180254 66 165 2.0 6.0 0.00 0.00 0.00 47 1023.8
20190418175756 65 105 2.0 4.0 0.00 0.00 0.00 46 1023.9
20190418175306 65 83 2.0 6.0 0.00 0.00 0.00 50 1024.0
20190418174802 64 17 2.0 7.0 0.00 0.00 0.00 48 1023.9
20190418174259 64 80 2.0 7.0 0.00 0.00 0.00 48 1023.9
20190418173757 63 115 2.0 7.0 0.00 0.00 0.00 49 1024.0
20190418173257 63 139 2.0 7.0 0.00 0.00 0.00 49 1024.0
20190418172800 62 151 3.0 7.0 0.00 0.00 0.00 47 1024.0
20190418172256 62 78 3.0 7.0 0.00 0.00 0.00 48 1024.1
20190418171759 62 90 2.0 7.0 0.00 0.00 0.00 47 1024.1
20190418171259 61 112 2.0 6.0 0.00 0.00 0.00 49 1024.1
20190418170803 60 127 2.0 7.0 0.00 0.00 0.00 52 1024.1
20190418170257 60 189 3.0 9.0 0.00 0.00 0.00 51 1024.0
20190418165757 59 141 4.0 10.0 0.00 0.00 0.00 53 1023.9
20190418165256 59 142 4.0 10.0 0.00 0.00 0.00 53 1023.9
20190418164759 58 126 3.0 9.0 0.00 0.00 0.00 54 1023.9
20190418164257 58 136 4.0 9.0 0.00 0.00 0.00 55 1024.0
20190418163756 57 136 5.0 10.0 0.00 0.00 0.00 56 1024.1
20190418163302 56 115 5.0 10.0 0.00 0.00 0.00 55 1024.1
20190418162759 56 118 4.0 9.0 0.00 0.00 0.00 56 1024.2
20190418162256 55 115 4.0 9.0 0.00 0.00 0.00 57 1024.4
20190418161754 55 134 4.0 9.0 0.00 0.00 0.00 59 1024.4
20190418161255 54 110 3.0 8.0 0.00 0.00 0.00 59 1024.4
20190418160753 54 97 3.0 8.0 0.00 0.00 0.00 60 1024.6
20190418160252 53 148 4.0 8.0 0.00 0.00 0.00 62 1024.6
20190418155752 53 148 4.0 9.0 0.00 0.00 0.00 61 1024.4
20190418155249 53 136 4.0 10.0 0.00 0.00 0.00 61 1024.6
20190418154749 52 158 5.0 10.0 0.00 0.00 0.00 61 1024.6
20190418154247 52 145 5.0 10.0 0.00 0.00 0.00 63 1024.6
20190418153750 51 160 5.0 10.0 0.00 0.00 0.00 65 1024.6
20190418153247 50 189 5.0 9.0 0.00 0.00 0.00 66 1024.7
20190418152746 49 140 6.0 10.0 0.00 0.00 0.00 67 1024.7
20190418152245 49 141 5.0 10.0 0.00 0.00 0.00 67 1024.7
20190418151745 49 151 4.0 9.0 0.00 0.00 0.00 68 1024.8
20190418151245 48 132 4.0 8.0 0.00 0.00 0.00 70 1024.8
20190418150745 47 109 4.0 8.0 0.00 0.00 0.00 72 1024.8
20190418150245 47 140 4.0 8.0 0.00 0.00 0.00 74 1024.8
20190418145745 46 140 3.0 8.0 0.00 0.00 0.00 75 1024.9
20190418145245 46 138 3.0 6.0 0.00 0.00 0.00 75 1024.9
20190418144745 45 120 3.0 9.0 0.00 0.00 0.00 76 1025.0
20190418144244 45 148 4.0 9.0 0.00 0.00 0.00 76 1024.9
20190418143746 44 144 4.0 9.0 0.00 0.00 0.00 77 1024.9
20190418143244 44 178 4.0 9.0 0.00 0.00 0.00 77 1024.8
20190418142743 43 138 4.0 9.0 0.00 0.00 0.00 77 1024.8
20190418142243 43 163 4.0 8.0 0.00 0.00 0.00 77 1024.8
20190418141743 42 140 3.0 7.0 0.00 0.00 0.00 78 1024.8
20190418141243 42 138 3.0 6.0 0.00 0.00 0.00 78 1024.8
20190418140743 42 123 3.0 6.0 0.00 0.00 0.00 79 1024.8
20190418140243 42 183 3.0 6.0 0.00 0.00 0.00 79 1024.7
20190418135742 41 148 3.0 6.0 0.00 0.00 0.00 79 1024.7
20190418135242 41 150 3.0 7.0 0.00 0.00 0.00 79 1024.7
20190418134740 41 161 3.0 8.0 0.00 0.00 0.00 80 1024.6
20190418134239 41 150 4.0 8.0 0.00 0.00 0.00 80 1024.6
20190418133739 41 147 4.0 7.0 0.00 0.00 0.00 81 1024.6
20190418133239 41 144 3.0 8.0 0.00 0.00 0.00 81 1024.6
20190418132740 41 126 3.0 8.0 0.00 0.00 0.00 81 1024.6
20190418132238 41 146 2.0 5.0 0.00 0.00 0.00 81 1024.6
20190418131739 41 150 2.0 5.0 0.00 0.00 0.00 81 1024.7
20190418131239 41 153 2.0 6.0 0.00 0.00 0.00 81 1024.7
20190418130739 41 127 3.0 6.0 0.00 0.00 0.00 81 1024.8
20190418130237 41 153 3.0 6.0 0.00 0.00 0.00 81 1024.7
20190418125737 41 148 3.0 7.0 0.00 0.00 0.00 81 1024.7
20190418125237 41 143 3.0 7.0 0.00 0.00 0.00 81 1024.7
20190418124739 41 148 3.0 6.0 0.00 0.00 0.00 81 1024.8
20190418124237 41 158 3.0 6.0 0.00 0.00 0.00 81 1024.8
20190418123738 41 138 2.0 7.0 0.00 0.00 0.00 80 1024.8
20190418123237 41 195 3.0 7.0 0.00 0.00 0.00 80 1024.8
20190418122736 41 153 3.0 7.0 0.00 0.00 0.00 81 1024.8
20190418122236 41 142 4.0 7.0 0.00 0.00 0.00 81 1024.9
20190418121735 41 148 4.0 7.0 0.00 0.00 0.00 81 1024.8
20190418121236 42 157 4.0 8.0 0.00 0.00 0.00 80 1024.9
20190418120735 42 138 4.0 8.0 0.00 0.00 0.00 80 1025.0
20190418120233 42 156 3.0 8.0 0.00 0.00 0.00 80 1025.0
20190418115733 42 153 3.0 7.0 0.00 0.00 0.00 80 1025.0
20190418115236 42 141 4.0 9.0 0.00 0.00 0.00 81 1025.0
20190418114735 42 146 4.0 9.0 0.00 0.00 0.00 82 1024.9
20190418114235 42 132 4.0 7.0 0.00 0.00 0.00 82 1024.9
20190418113732 42 142 4.0 7.0 0.00 0.00 0.00 82 1024.9
20190418113233 42 146 4.0 8.0 0.00 0.00 0.00 81 1024.9
20190418112732 41 140 4.0 8.0 0.00 0.00 0.00 81 1024.9
20190418112232 41 148 4.0 8.0 0.00 0.00 0.00 82 1024.9
20190418111732 41 150 4.0 8.0 0.00 0.00 0.00 82 1024.9
20190418111233 41 142 3.0 7.0 0.00 0.00 0.00 82 1024.9
20190418110732 41 165 3.0 7.0 0.00 0.00 0.00 82 1024.9
20190418110233 41 167 4.0 8.0 0.00 0.00 0.00 82 1025.0
20190418105732 41 142 5.0 8.0 0.00 0.00 0.00 82 1024.9
20190418105233 41 140 4.0 8.0 0.00 0.00 0.00 82 1024.9
20190418104734 41 150 4.0 8.0 0.00 0.00 0.00 82 1025.1
20190418104233 41 152 4.0 8.0 0.00 0.00 0.00 83 1025.1
20190418103732 41 144 3.0 8.0 0.00 0.00 0.00 83 1025.1
20190418103232 42 133 3.0 5.0 0.00 0.00 0.00 83 1025.0
20190418102732 42 135 3.0 6.0 0.00 0.00 0.00 82 1025.0
20190418102232 42 140 3.0 6.0 0.00 0.00 0.00 82 1025.1
20190418101732 42 141 2.0 5.0 0.00 0.00 0.00 82 1025.1
20190418101233 42 145 2.0 4.0 0.00 0.00 0.00 81 1025.1
20190418100732 42 142 1.0 4.0 0.00 0.00 0.00 82 1025.1
20190418100233 43 142 1.0 3.0 0.00 0.00 0.00 81 1025.1
20190418095732 43 153 1.0 3.0 0.00 0.00 0.00 81 1025.0
20190418095232 43 148 0.0 3.0 0.00 0.00 0.00 81 1025.1
20190418094731 43 147 0.0 2.0 0.00 0.00 0.00 81 1025.1
20190418094231 43 147 1.0 3.0 0.00 0.00 0.00 82 1025.1
20190418093730 43 147 2.0 3.0 0.00 0.00 0.00 82 1025.1
20190418093231 43 142 1.0 3.0 0.00 0.00 0.00 82 1025.1
20190418092730 43 144 1.0 3.0 0.00 0.00 0.00 81 1025.1
20190418092230 43 144 2.0 3.0 0.00 0.00 0.00 81 1025.2
20190418091731 43 144 2.0 3.0 0.00 0.00 0.00 80 1025.2
20190418091228 44 140 2.0 4.0 0.00 0.00 0.00 80 1025.2
20190418090729 44 119 2.0 4.0 0.00 0.00 0.00 79 1025.3
20190418090228 44 130 2.0 2.0 0.00 0.00 0.00 79 1025.3
20190418085726 44 130 1.0 2.0 0.00 0.00 0.00 78 1025.4
20190418085229 44 130 1.0 2.0 0.00 0.00 0.00 79 1025.4
20190418084726 44 130 1.0 2.0 0.00 0.00 0.00 79 1025.3
20190418084224 44 130 0.0 2.0 0.00 0.00 0.00 80 1025.4
20190418083724 44 130 0.0 2.0 0.00 0.00 0.00 80 1025.5
20190418083227 44 130 0.0 1.0 0.00 0.00 0.00 79 1025.5
20190418082725 44 130 0.0 1.0 0.00 0.00 0.00 78 1025.5
20190418082224 45 130 1.0 2.0 0.00 0.00 0.00 78 1025.6
20190418081724 45 130 1.0 2.0 0.00 0.00 0.00 77 1025.6
20190418081224 46 130 1.0 2.0 0.00 0.00 0.00 76 1025.6
20190418080722 46 130 1.0 2.0 0.00 0.00 0.00 75 1025.5
20190418080222 47 130 1.0 2.0 0.00 0.00 0.00 74 1025.4
20190418075723 47 130 1.0 2.0 0.00 0.00 0.00 74 1025.4
20190418075222 47 130 1.0 2.0 0.00 0.00 0.00 74 1025.4
20190418074722 47 130 0.0 1.0 0.00 0.00 0.00 74 1025.4
20190418074223 47 130 0.0 0.0 0.00 0.00 0.00 73 1025.4
20190418073723 47 130 0.0 0.0 0.00 0.00 0.00 73 1025.5
20190418073222 48 130 0.0 0.0 0.00 0.00 0.00 72 1025.4
20190418072722 48 130 0.0 1.0 0.00 0.00 0.00 73 1025.4
20190418072222 48 130 1.0 2.0 0.00 0.00 0.00 73 1025.3
20190418071720 48 130 1.0 2.0 0.00 0.00 0.00 72 1025.3
20190418071220 48 130 1.0 2.0 0.00 0.00 0.00 72 1025.3
20190418070720 48 130 1.0 2.0 0.00 0.00 0.00 72 1025.3
20190418070219 48 130 1.0 2.0 0.00 0.00 0.00 71 1025.3
20190418065718 49 110 1.0 3.0 0.00 0.00 0.00 70 1025.4
20190418065218 49 110 1.0 3.0 0.00 0.00 0.00 69 1025.4
20190418064721 50 350 0.0 2.0 0.00 0.00 0.00 68 1025.4
20190418064221 50 350 0.0 1.0 0.00 0.00 0.00 68 1025.4
20190418063718 50 350 0.0 1.0 0.00 0.00 0.00 67 1025.4
20190418063218 50 350 0.0 1.0 0.00 0.00 0.00 67 1025.3
20190418062718 50 350 1.0 2.0 0.00 0.00 0.00 67 1025.3
20190418062218 51 350 1.0 2.0 0.00 0.00 0.00 66 1025.3
20190418061718 51 350 1.0 2.0 0.00 0.00 0.00 65 1025.3
20190418061218 51 350 0.0 1.0 0.00 0.00 0.00 65 1025.1
20190418060718 52 350 0.0 1.0 0.00 0.00 0.00 64 1025.1
20190418060218 52 350 0.0 2.0 0.00 0.00 0.00 63 1025.2
20190418055718 52 350 0.0 2.0 0.00 0.00 0.00 63 1025.1
20190418055217 52 348 0.0 1.0 0.00 0.00 0.00 63 1025.2
20190418054717 52 348 0.0 1.0 0.00 0.00 0.00 63 1025.3
20190418054218 52 348 0.0 2.0 0.00 0.00 0.00 63 1025.2
20190418053723 52 348 0.0 2.0 0.00 0.00 0.00 64 1025.2
20190418053216 52 343 0.0 0.0 0.00 0.00 0.00 63 1025.3
20190418052718 52 343 0.0 0.0 0.00 0.00 0.00 63 1025.3
20190418052216 53 343 0.0 1.0 0.00 0.00 0.00 62 1025.2
20190418051716 53 343 0.0 2.0 0.00 0.00 0.00 62 1025.2
20190418051211 53 343 0.0 2.0 0.00 0.00 0.00 62 1025.2
20190418050714 53 300 0.0 0.0 0.00 0.00 0.00 62 1025.2
20190418050300 53 300 0.0 1.0 0.00 0.00 0.00 61 1025.1
20190418045800 53 300 1.0 3.0 0.00 0.00 0.00 61 1025.2
20190418045300 54 300 2.0 4.0 0.00 0.00 0.00 61 1025.0
20190418044800 54 295 3.0 4.0 0.00 0.00 0.00 61 1024.8
20190418044259 54 296 2.0 4.0 0.00 0.00 0.00 60 1024.8
20190418043800 54 284 2.0 4.0 0.00 0.00 0.00 60 1024.8
20190418043259 54 291 3.0 6.0 0.00 0.00 0.00 60 1024.8
20190418042759 53 279 3.0 6.0 0.00 0.00 0.00 60 1024.8
20190418042257 53 275 2.0 4.0 0.00 0.00 0.00 60 1024.7
20190418041757 53 277 1.0 2.0 0.00 0.00 0.00 60 1024.6
20190418041257 54 292 1.0 3.0 0.00 0.00 0.00 59 1024.3
20190418040756 54 288 1.0 4.0 0.00 0.00 0.00 57 1024.1
20190418040257 55 304 1.0 4.0 0.00 0.00 0.00 56 1024.2
20190418035755 55 295 1.0 2.0 0.00 0.00 0.00 56 1024.2
20190418035256 56 295 2.0 4.0 0.00 0.00 0.00 55 1024.1
20190418034755 56 294 3.0 6.0 0.00 0.00 0.00 55 1024.0
20190418034256 56 286 3.0 6.0 0.00 0.00 0.00 54 1023.9
20190418033755 56 295 3.0 6.0 0.00 0.00 0.00 54 1023.9
20190418033255 56 294 3.0 6.0 0.00 0.00 0.00 53 1023.8
20190418032755 56 273 2.0 4.0 0.00 0.00 0.00 53 1023.7
20190418032256 57 270 2.0 4.0 0.00 0.00 0.00 51 1023.6
20190418031755 57 274 1.0 3.0 0.00 0.00 0.00 51 1023.5
20190418031255 58 274 2.0 6.0 0.00 0.00 0.00 50 1023.4
20190418030756 58 284 3.0 6.0 0.00 0.00 0.00 50 1023.2
20190418030254 58 279 3.0 6.0 0.00 0.00 0.00 49 1023.1
20190418025753 59 313 3.0 6.0 0.00 0.00 0.00 48 1023.0
20190418025254 59 301 3.0 7.0 0.00 0.00 0.00 47 1022.9
20190418024753 60 290 4.0 7.0 0.00 0.00 0.00 47 1022.9
20190418024253 60 305 3.0 8.0 0.00 0.00 0.00 45 1023.0
20190418023756 61 292 4.0 7.0 0.00 0.00 0.00 44 1023.0
20190418023252 61 287 4.0 7.0 0.00 0.00 0.00 43 1023.0
20190418022752 62 275 3.0 7.0 0.00 0.00 0.00 42 1023.0
20190418022251 62 292 3.0 7.0 0.00 0.00 0.00 40 1023.0
20190418021752 63 287 3.0 7.0 0.00 0.00 0.00 39 1023.0
20190418021251 63 293 4.0 9.0 0.00 0.00 0.00 38 1023.0
20190418020751 64 299 4.0 9.0 0.00 0.00 0.00 37 1023.0
20190418020251 64 283 4.0 9.0 0.00 0.00 0.00 36 1022.9
20190418015750 65 274 4.0 9.0 0.00 0.00 0.00 35 1022.9
20190418015251 65 290 4.0 9.0 0.00 0.00 0.00 34 1022.8
20190418014750 66 331 4.0 9.0 0.00 0.00 0.00 34 1022.8
20190418014249 66 284 4.0 9.0 0.00 0.00 0.00 35 1022.9
20190418013748 67 336 5.0 9.0 0.00 0.00 0.00 34 1022.9
20190418013249 67 314 4.0 9.0 0.00 0.00 0.00 33 1023.0
20190418012749 67 284 4.0 10.0 0.00 0.00 0.00 34 1023.1
20190418012249 67 355 4.0 10.0 0.00 0.00 0.00 33 1023.1
20190418011749 67 301 4.0 8.0 0.00 0.00 0.00 32 1023.0
20190418011248 67 343 5.0 8.0 0.00 0.00 0.00 31 1023.1
20190418010750 68 283 3.0 8.0 0.00 0.00 0.00 31 1023.0
20190418010248 68 323 3.0 7.0 0.00 0.00 0.00 31 1022.9
20190418005749 68 271 2.0 7.0 0.00 0.00 0.00 30 1022.9
20190418005249 68 0 3.0 6.0 0.00 0.00 0.00 28 1022.9
20190418004749 68 342 3.0 7.0 0.00 0.00 0.00 28 1023.0
20190418004249 68 321 3.0 7.0 0.00 0.00 0.00 29 1022.9
20190418003749 68 350 3.0 7.0 0.00 0.00 0.00 27 1022.9
20190418003249 68 36 3.0 6.0 0.00 0.00 0.00 28 1023.0
20190418002749 68 302 3.0 6.0 0.00 0.00 0.00 29 1023.0